Weather History for KCLI - November, 2013

Change the Weather History Date:

Saturday, November 2, 2013

  Actual Average Record
Temperature  
Mean Temperature 38 °F -  
Max Temperature 42 °F 50 °F 72 °F (1990)
Min Temperature 35 °F 32 °F 14 °F (1984)
Degree Days  
Heating Degree Days 26    
Moisture  
Dew Point 36 °F    
Average Humidity 86    
Maximum Humidity 100    
Minimum Humidity 66    
Precipitation  
Precipitation 0.03 in - - ()
Sea Level Pressure  
Sea Level Pressure 29.95 in    
Wind  
Wind Speed 4 mph (North)    
Max Wind Speed 10 mph    
Max Gust Speed -    
Visibility 10 miles    
Events Rain    
Averages and records for this station are not official NWS values.
T = Trace of Precipitation, MM = Missing Value Source: NWS Daily Summary

Daily Weather History Graph

Daily Weather History Graph

Search for Another Location

Airport or City:

Trip Planner

Search our weather history database for the weather conditions in past years. The results will help you decide how hot, cold, wet, or windy it might be!

Date:

Astronomy

Nov. 02, 2013 Rise Set
Actual Time 7:34 AM CDT 5:42 PM CDT
Civil Twilight 7:03 AM CDT 6:12 PM CDT
Nautical Twilight 6:29 AM CDT 6:47 PM CDT
Astronomical Twilight 5:55 AM CDT 7:20 PM CDT
Moon 6:29 AM CDT (11/2) 5:14 PM CDT (11/2)
Length of Visible Light 11h 08m
Length of Day
10h 07m
Waning Crescent, 1% of the Moon is Illuminated
Nov 2
Waning Crescent
Nov 3
New
Nov 9
First Quarter
Nov 17
Full
Nov 25
Last Quarter

Hourly Weather History & Observations

Time (CDT) Temp. Windchill Dew Point Humidity Pressure Visibility Wind Dir Wind Speed Gust Speed Precip Events Conditions
12:15 AM 42.8 °F 40.1 °F 39.2 °F 87% 29.72 in 10.0 mi North 4.6 mph - N/A   Drizzle
12:35 AM 42.8 °F 39.3 °F 41.0 °F 93% 29.73 in 10.0 mi North 5.8 mph - N/A   Drizzle
12:55 AM 41.0 °F 38.0 °F 39.2 °F 93% 29.74 in 10.0 mi North 4.6 mph - N/A   Drizzle
1:15 AM 41.0 °F 38.0 °F 37.4 °F 87% 29.74 in 10.0 mi North 4.6 mph - N/A Rain Light Rain
1:35 AM 41.0 °F 39.0 °F 37.4 °F 87% 29.75 in 10.0 mi North 3.5 mph - N/A   Light Drizzle
1:55 AM 41.0 °F 39.0 °F 39.2 °F 93% 29.76 in 10.0 mi North 3.5 mph - N/A   Drizzle
2:15 AM 41.0 °F 39.0 °F 39.2 °F 93% 29.76 in 10.0 mi North 3.5 mph - N/A   Overcast
2:35 AM 41.0 °F 39.0 °F 39.2 °F 93% 29.77 in 10.0 mi North 3.5 mph - N/A   Overcast
2:55 AM 41.0 °F 38.0 °F 37.4 °F 87% 29.78 in 10.0 mi North 4.6 mph - N/A   Overcast
3:15 AM 41.0 °F 38.0 °F 37.4 °F 87% 29.78 in 10.0 mi North 4.6 mph - N/A   Overcast
3:35 AM 41.0 °F 38.0 °F 37.4 °F 87% 29.78 in 10.0 mi North 4.6 mph - N/A   Overcast
3:55 AM 41.0 °F 37.1 °F 37.4 °F 87% 29.78 in 10.0 mi North 5.8 mph - N/A   Overcast
4:15 AM 41.0 °F 39.0 °F 37.4 °F 87% 29.79 in 10.0 mi North 3.5 mph - N/A   Overcast
4:35 AM 39.2 °F 37.0 °F 37.4 °F 93% 29.80 in 10.0 mi North 3.5 mph - N/A   Overcast
4:55 AM 39.2 °F - 37.4 °F 93% 29.81 in 10.0 mi Calm Calm - N/A   Overcast
5:15 AM 39.2 °F 37.0 °F 37.4 °F 93% 29.82 in 10.0 mi North 3.5 mph - N/A   Overcast
5:35 AM 39.2 °F - 37.4 °F 93% 29.83 in 10.0 mi Calm Calm - N/A   Overcast
5:55 AM 39.2 °F 37.0 °F 37.4 °F 93% 29.84 in 10.0 mi NNW 3.5 mph - N/A   Overcast
6:15 AM 39.2 °F 35.9 °F 37.4 °F 93% 29.84 in 10.0 mi NNW 4.6 mph - N/A   Overcast
6:35 AM 39.2 °F 37.0 °F 35.6 °F 87% 29.85 in 10.0 mi NW 3.5 mph - N/A   Overcast
6:55 AM 37.4 °F - 35.6 °F 93% 29.86 in 10.0 mi Calm Calm - N/A   Overcast
7:15 AM 39.2 °F 37.0 °F 37.4 °F 93% 29.86 in 10.0 mi NNW 3.5 mph - N/A   Overcast
7:35 AM 39.2 °F - 35.6 °F 87% 29.87 in 10.0 mi Calm Calm - N/A   Overcast
7:55 AM 39.2 °F 37.0 °F 37.4 °F 93% 29.87 in 10.0 mi North 3.5 mph - N/A   Overcast
8:15 AM 39.2 °F 37.0 °F 35.6 °F 87% 29.88 in 10.0 mi North 3.5 mph - N/A   Overcast
8:35 AM 39.2 °F 37.0 °F 35.6 °F 87% 29.89 in 10.0 mi North 3.5 mph - N/A   Overcast
8:55 AM 39.2 °F 35.9 °F 35.6 °F 87% 29.90 in 10.0 mi North 4.6 mph - N/A   Overcast
9:15 AM 39.2 °F 35.9 °F 35.6 °F 87% 29.91 in 10.0 mi North 4.6 mph - N/A   Overcast
9:35 AM 39.2 °F 34.2 °F 33.8 °F 81% 29.92 in 10.0 mi North 6.9 mph - N/A   Overcast
9:55 AM 41.0 °F 36.4 °F 33.8 °F 76% 29.92 in 10.0 mi North 6.9 mph - N/A   Overcast
10:15 AM 42.8 °F 39.3 °F 33.8 °F 70% 29.93 in 10.0 mi NE 5.8 mph - N/A   Overcast
10:35 AM 41.0 °F 36.4 °F 33.8 °F 76% 29.94 in 10.0 mi NNE 6.9 mph - N/A   Mostly Cloudy
10:55 AM 42.8 °F 38.6 °F 33.8 °F 70% 29.94 in 10.0 mi NNE 6.9 mph - N/A   Mostly Cloudy
12:15 PM 42.8 °F 38.6 °F 32.0 °F 66% 29.97 in 10.0 mi NE 6.9 mph - N/A   Overcast
12:35 PM 42.8 °F 38.6 °F 32.0 °F 66% 29.97 in 10.0 mi ENE 6.9 mph - N/A   Overcast
12:55 PM 42.8 °F 38.6 °F 32.0 °F 66% 29.98 in 10.0 mi NNE 6.9 mph - N/A   Light Drizzle
1:15 PM 42.8 °F 41.1 °F 32.0 °F 66% 29.98 in 10.0 mi NNE 3.5 mph - N/A   Overcast
1:35 PM 42.8 °F 38.6 °F 33.8 °F 70% 29.98 in 10.0 mi North 6.9 mph - N/A   Drizzle
1:55 PM 42.8 °F 40.1 °F 33.8 °F 70% 29.99 in 10.0 mi North 4.6 mph - N/A   Overcast
2:15 PM 42.8 °F - 32.0 °F 66% 29.99 in 10.0 mi Calm Calm - N/A   Overcast
2:35 PM 42.8 °F 41.1 °F 33.8 °F 70% 30.00 in 10.0 mi North 3.5 mph - N/A   Overcast
2:55 PM 42.8 °F - 33.8 °F 70% 30.00 in 7.0 mi Calm Calm - N/A   Light Drizzle
3:15 PM 42.8 °F - 33.8 °F 70% 30.00 in 10.0 mi Calm Calm - N/A   Overcast
3:35 PM 42.8 °F 40.1 °F 33.8 °F 70% 30.01 in 10.0 mi East 4.6 mph - N/A   Overcast
3:55 PM 42.8 °F - 33.8 °F 70% 30.02 in 10.0 mi Calm Calm - N/A   Overcast
4:15 PM 42.8 °F - 33.8 °F 70% 30.03 in 10.0 mi Calm Calm - N/A   Overcast
4:35 PM 39.2 °F 32.5 °F 33.8 °F 81% 30.03 in 10.0 mi North 10.4 mph - N/A   Overcast
4:55 PM 37.4 °F 32.1 °F 35.6 °F 93% 30.05 in 2.5 mi North 6.9 mph - 0.02 in Rain Rain
5:15 PM 37.4 °F 34.9 °F 35.6 °F 93% 30.05 in 5.0 mi ENE 3.5 mph - 0.01 in Rain Rain
5:35 PM 37.4 °F - 35.6 °F 93% 30.05 in 10.0 mi Calm Calm - 0.01 in   Overcast
5:55 PM 39.2 °F - 35.6 °F 87% 30.06 in 10.0 mi Calm Calm - 0.01 in   Overcast
6:15 PM 37.4 °F 33.8 °F 37.4 °F 100% 30.06 in 10.0 mi WNW 4.6 mph - N/A   Overcast
6:35 PM 37.4 °F - 37.4 °F 100% 30.07 in 10.0 mi Calm Calm - N/A   Overcast
6:55 PM 37.4 °F 33.8 °F 37.4 °F 100% 30.08 in 10.0 mi West 4.6 mph - N/A   Overcast
7:15 PM 37.4 °F - 35.6 °F 93% 30.09 in 10.0 mi Calm Calm - N/A   Overcast
7:35 PM 37.4 °F 34.9 °F 35.6 °F 93% 30.09 in 10.0 mi NW 3.5 mph - N/A   Overcast
7:55 PM 37.4 °F 34.9 °F 35.6 °F 93% 30.10 in 10.0 mi NW 3.5 mph - N/A   Overcast
8:15 PM 37.4 °F - 35.6 °F 93% 30.10 in 10.0 mi Calm Calm - N/A   Overcast
8:35 PM 37.4 °F - 35.6 °F 93% 30.11 in 10.0 mi Calm Calm - N/A   Overcast
8:55 PM 35.6 °F - 35.6 °F 100% 30.11 in 10.0 mi Calm Calm - N/A   Overcast
9:15 PM 37.4 °F - 35.6 °F 93% 30.11 in 10.0 mi Calm Calm - N/A   Overcast
9:35 PM 37.4 °F - 35.6 °F 93% 30.12 in 10.0 mi Calm Calm - N/A   Overcast
9:55 PM 37.4 °F - 35.6 °F 93% 30.12 in 10.0 mi Calm Calm - N/A   Overcast
10:15 PM 37.4 °F 34.9 °F 35.6 °F 93% 30.13 in 10.0 mi ENE 3.5 mph - N/A   Overcast
10:35 PM 37.4 °F - 35.6 °F 93% 30.13 in 10.0 mi Calm Calm - N/A   Overcast
10:55 PM 37.4 °F - 35.6 °F 93% 30.14 in 10.0 mi Calm Calm - N/A   Overcast
11:15 PM 37.4 °F - 35.6 °F 93% 30.14 in 10.0 mi Calm Calm - N/A   Overcast
11:35 PM 37.4 °F - 35.6 °F 93% 30.14 in 10.0 mi Calm Calm - N/A   Overcast
11:55 PM 37.4 °F - 35.6 °F 93% 30.15 in 10.0 mi Calm Calm - N/A   Overcast